Regional Weather Roundup
Issued by NWS

Home | Current Version | Previous Version | Graphics & Text | Print | Product List | Glossary Off
Versions: 1 2 3 4 5 6 7 8 9 10 11 12 13 14 15 16 17 18 19 20 21 22 23 24 25 26 27 28 29 30 31 32 33 34 35 36 37 38 39 40 41 42 43 44 45 46 47 48 49 50

000
ASUS43 KDTX 140410
RWRMI
MICHIGAN HOURLY REGIONAL WEATHER ROUNDUP
NATIONAL WEATHER SERVICE DETROIT/PONTIAC MI
1200 AM EDT MON JUL 14 2014

NOTE: "FAIR" INDICATES FEW OR NO CLOUDS BELOW 12,000 FEET WITH NO
SIGNIFICANT WEATHER AND/OR OBSTRUCTION TO VISIBILITY.

MIZ047>049-052>055-059>063-066>070-074>076-081>083-140500-
SOUTHEAST LOWER MICHIGAN

CITY           SKY/WX    TMP DP  RH WIND       PRES   REMARKS
ADRIAN         CLEAR     67  61  81 NW3       29.91F
ALMA           MOCLDY    65  63  90 CALM      29.89S
ANN ARBOR      CLEAR     61  58  90 CALM      29.90F
BAD AXE        MOCLDY    61  54  77 E3        29.91S
CARO           MOCLDY    68  66  92 CALM      29.88S
DETROIT CITY   CLEAR     75  58  55 CALM      29.89S
DETROIT        CLEAR     71  61  70 S3        29.90S
FLINT          PTCLDY    68  61  78 SW3       29.89F
GROSSE ILE     CLEAR     70  63  78 CALM      29.88S
HILLSDALE      CLEAR     63  63  99 CALM      29.92F
HOWELL         MOCLDY    66  62  85 CALM      29.91S

CITY           SKY/WX    TMP DP  RH WIND       PRES   REMARKS
JACKSON        PTCLDY    67  61  81 CALM      29.90F
LAMBERTVILLE   CLEAR     68  63  83 CALM      29.91S
LANSING        MOCLDY    67  62  84 CALM      29.90S
LAPEER         FAIR      65  62  91 CALM      29.90S
MASON          MOCLDY    65  62  91 CALM      29.90F
MONROE         CLEAR     66  63  88 CALM      29.88F
MT. CLEMENS    PTCLDY    72  59  62 W3        29.88S
PONTIAC        PTCLDY    67  60  78 CALM      29.89F
PORT HOPE        N/A     64  53  67 E8        29.89S
PORT HURON     CLOUDY    66  61  82 NE6       29.91R
TRI CITIES     LGT RAIN  66  59  78 NW9       29.91R
TROY           CLEAR     72  58  62 CALM      29.90S
SAGINAW HB     PTCLDY    68  64  88 CALM      29.88S
$$
MIZ043>046-050>051-056>058-064>065-071>073-077>080-140500-
SOUTHWEST LOWER MICHIGAN

CITY           SKY/WX    TMP DP  RH WIND       PRES   REMARKS
BATTLE CREEK   CLOUDY    70  63  78 SW5       29.89F
BENTON HARBOR  CLOUDY    68  66  93 S7        29.87F
BIG RAPIDS     PTCLDY    63  63 100 CALM      29.89S
COLDWATER      CLOUDY    69  64  85 CALM      29.90F
FREMONT        MOCLDY    64  64 100 CALM      29.88F FOG
HOLLAND        PTCLDY    68  64  87 CALM      29.89F
GRAND RAPIDS   PTCLDY    69  63  81 S3        29.88F
IONIA          FAIR      67  64  89 CALM      29.88F
KALAMAZOO      LGT RAIN  70  63  78 S10       29.90F
LUDINGTON      FOG       57  56  97 CALM      29.89S VSB 1/4
MARSHALL       CLOUDY    70  61  74 CALM      29.89F
MOUNT PLEASANT CLOUDY    66  65  96 W3        29.89S
MUSKEGON       MOCLDY    65  61  87 CALM      29.88F
SOUTH HAVEN    MOCLDY    68  66  94 CALM      29.88S
$$
MIZ016>042-140500-
NORTHERN LOWER MICHIGAN

CITY           SKY/WX    TMP DP  RH WIND       PRES   REMARKS
ALPENA         CLEAR     53  50  89 CALM      29.89S
BEAVER ISLAND  MOCLDY    59  53  80 S3        29.85F
BELLAIRE       CLEAR     53  51  94 CALM      29.87F FOG
CADILLAC       CLEAR     52  52 100 CALM      29.90F
CHARLEVOIX     CLEAR     60  54  80 SE3       29.89S
FRANKFORT      CLEAR     56  53  90 CALM      29.87F FOG
GAYLORD        CLEAR     55  51  86 CALM      29.89S
GRAYLING         N/A     50  50 100 CALM      29.90F FOG
HARBOR SPRINGS CLEAR     56  54  91 CALM      29.86S
HOUGHTON LAKE  CLEAR     53  51  93 CALM      29.90F
MANISTEE       CLOUDY    57  55  94 CALM      29.88F VSB 1/4
OSCODA         CLEAR     62  53  72 E5        29.89S
PELLSTON       CLEAR     50  48  93 CALM      29.87S
ROGERS CITY    CLEAR     52  51  97 CALM      29.89S
TRAVERSE CITY  CLEAR     59  51  75 CALM      29.86S
$$
MIZ007>008-015-140500-
EASTERN UPPER MICHIGAN

CITY           SKY/WX    TMP DP  RH WIND       PRES   REMARKS
KINROSS        CLEAR     55  48  76 S6        29.85F
MACKINAC ISLAN CLEAR     56  49  77 E6        29.85F
NEWBERRY       PTCLDY    55  49  79 S12       29.84S
S. S. MARIE    CLEAR     52  46  80 CALM      29.84F
MUNISING         N/A     59  45  59 SW6       29.82F
$$
MIZ004>006-011>014-085-140500-
CENTRAL UPPER MICHIGAN

CITY           SKY/WX    TMP DP  RH WIND       PRES   REMARKS
MANISTIQUE     CLOUDY    54  52  93 CALM      29.84F
ESCANABA       CLOUDY    57  54  88 CALM      29.83F
MENOMINEE      CLEAR     61  46  59 W3        29.84F
SAWYER-GWINN   LGT RAIN  58  51  79 S3        29.84S
$$
MIZ001>003-009>011-084-140500-
WESTERN UPPER MICHIGAN

CITY           SKY/WX    TMP DP  RH WIND       PRES   REMARKS
IRON MOUNTAIN  MOCLDY    57  49  74 CALM      29.84S
HOUGHTON       CLOUDY    55  48  77 W6        29.80F
COPPER HARBOR    N/A     59  48  67 VRB7      29.78F
IRONWOOD       CLOUDY   N/A N/A N/A NW9       29.83S
$$

ABBREVIATIONS USED IN REMARKS
   TC - TEMPERATURE IN CELSIUS
  WCI - WIND CHILL INDEX
   HX - HEAT INDEX
  VSB - VISIBILITY



USA.gov is the U.S. government's official web portal to all federal, state and local government web resources and services.